When you browse on this site, cookies collect data to enhance your experience and personalize the content and advertising you see.
Visit our Privacy Policy to learn more. By continuing to use the site, you agree to this use of cookies and data.
  • In Österreich
  • Länderverzeichnis
  • Für 7 Tage
  • Wassertemperatur
  • Satellitenkarten
  • Wetterkarte
  • News
  • Widgets
  • user-avatar
    Anmelden

    Stündliche Wetter Hakodate

    Heute, 19 Februar, Dienstag

    Zeit Temperatur Niederschläge Wind Luftdruck Luftfeuchtigkeit
    00:00 -1°C° 0 mm 4 m/S 766 mmHg 73%
    01:00 -1°C° 0 mm 4 m/S 766 mmHg 74%
    02:00 -1°C° 0 mm 4 m/S 765 mmHg 74%
    03:00 -1°C° 0 mm 4 m/S 765 mmHg 74%
    04:00 -1°C° 0 mm 4 m/S 765 mmHg 74%
    05:00 -1°C° 0 mm 4 m/S 765 mmHg 74%
    06:00 0°C° 0 mm 4 m/S 765 mmHg 74%
    07:00 +1°C° 0 mm 4 m/S 765 mmHg 73%
    08:00 +3°C° 0 mm 4 m/S 764 mmHg 71%
    09:00 +4°C° 0 mm 4 m/S 765 mmHg 65%
    10:00 +4°C° 0 mm 3 m/S 764 mmHg 65%
    11:00 +5°C° 0 mm 3 m/S 763 mmHg 66%
    12:00 +5°C° 0 mm 3 m/S 763 mmHg 67%
    13:00 +5°C° 0 mm 3 m/S 762 mmHg 69%
    14:00 +6°C° 0 mm 2 m/S 761 mmHg 72%
    15:00 +7°C° 0 mm 1 m/S 761 mmHg 74%
    16:00 +6°C° 0 mm 1 m/S 760 mmHg 76%
    17:00 +5°C° 0 mm 1 m/S 760 mmHg 79%
    18:00 +3°C° 0 mm 2 m/S 760 mmHg 82%
    19:00 +3°C° 0.3 mm 2 m/S 759 mmHg 82%
    20:00 +3°C° 0.3 mm 2 m/S 758 mmHg 83%
    21:00 +3°C° 0 mm 2 m/S 757 mmHg 83%
    22:00 +3°C° 0.7 mm 2 m/S 757 mmHg 84%
    23:00 +3°C° 0.7 mm 2 m/S 757 mmHg 85%

    Morgen, 20 Februar, Mittwoch

    Zeit Temperatur Niederschläge Wind Luftdruck Luftfeuchtigkeit
    00:00 +3°C° 0.7 mm 2 m/S 756 mmHg 86%
    01:00 +2°C° 0.1 mm 2 m/S 756 mmHg 87%
    02:00 +2°C° 0.1 mm 2 m/S 756 mmHg 87%
    03:00 +2°C° 0.1 mm 2 m/S 756 mmHg 87%
    04:00 +2°C° 0 mm 2 m/S 756 mmHg 87%
    05:00 +2°C° 0 mm 2 m/S 756 mmHg 87%
    06:00 +2°C° 0 mm 2 m/S 756 mmHg 87%
    07:00 +4°C° 0 mm 1 m/S 756 mmHg 84%
    08:00 +4°C° 0 mm 1 m/S 756 mmHg 82%
    09:00 +5°C° 0 mm 1 m/S 756 mmHg 79%
    10:00 +6°C° 0 mm 1 m/S 756 mmHg 76%
    11:00 +7°C° 0 mm 1 m/S 756 mmHg 74%
    12:00 +8°C° 0 mm 1 m/S 756 mmHg 71%
    13:00 +6°C° 0 mm 2 m/S 756 mmHg 73%
    14:00 +6°C° 0 mm 2 m/S 755 mmHg 75%
    15:00 +4°C° 0 mm 3 m/S 755 mmHg 77%
    16:00 +4°C° 0.1 mm 3 m/S 755 mmHg 80%
    17:00 +3°C° 0.1 mm 4 m/S 755 mmHg 83%
    18:00 +1°C° 0.1 mm 4 m/S 755 mmHg 86%
    19:00 +1°C° 0.6 mm 4 m/S 755 mmHg 87%
    20:00 +1°C° 0.6 mm 5 m/S 755 mmHg 87%
    21:00 0°C° 0.6 mm 5 m/S 755 mmHg 88%
    22:00 0°C° 1.8 mm 5 m/S 755 mmHg 89%
    23:00 0°C° 1.8 mm 4 m/S 756 mmHg 91%

    übermorgen, 21 Februar, Donnerstag

    Zeit Temperatur Niederschläge Wind Luftdruck Luftfeuchtigkeit
    00:00 +1°C° 1.8 mm 3 m/S 756 mmHg 92%
    01:00 +1°C° 0.3 mm 3 m/S 756 mmHg 92%
    02:00 +1°C° 0.3 mm 3 m/S 756 mmHg 92%
    03:00 +1°C° 0.3 mm 3 m/S 757 mmHg 92%
    04:00 +1°C° 0 mm 2 m/S 757 mmHg 92%
    05:00 +1°C° 0 mm 2 m/S 758 mmHg 92%
    06:00 +1°C° 0 mm 2 m/S 758 mmHg 92%
    07:00 +2°C° 0 mm 2 m/S 759 mmHg 88%
    08:00 +1°C° 0 mm 3 m/S 759 mmHg 83%
    09:00 +1°C° 0 mm 4 m/S 760 mmHg 79%
    10:00 +1°C° 0 mm 4 m/S 760 mmHg 76%
    11:00 +1°C° 0 mm 5 m/S 760 mmHg 73%
    12:00 +1°C° 0 mm 6 m/S 760 mmHg 70%
    13:00 +1°C° 0 mm 6 m/S 759 mmHg 69%
    14:00 0°C° 0 mm 7 m/S 759 mmHg 69%
    15:00 -1°C° 0 mm 8 m/S 759 mmHg 68%
    16:00 -1°C° 0 mm 7 m/S 760 mmHg 70%
    17:00 -2°C° 0 mm 7 m/S 760 mmHg 72%
    18:00 -3°C° 0 mm 7 m/S 760 mmHg 74%
    19:00 -3°C° 0 mm 7 m/S 761 mmHg 74%
    20:00 -3°C° 0 mm 6 m/S 761 mmHg 74%
    21:00 -3°C° 0 mm 6 m/S 761 mmHg 74%
    22:00 -2°C° 0 mm 6 m/S 761 mmHg 74%
    23:00 -2°C° 0 mm 6 m/S 761 mmHg 74%

    22 Februar, Freitag

    Zeit Temperatur Niederschläge Wind Luftdruck Luftfeuchtigkeit
    00:00 -2°C° 0 mm 6 m/S 761 mmHg 74%
    01:00 -2°C° 0 mm 6 m/S 761 mmHg 73%
    02:00 -2°C° 0 mm 6 m/S 761 mmHg 72%
    03:00 -2°C° 0 mm 6 m/S 761 mmHg 71%
    04:00 -2°C° 0 mm 6 m/S 761 mmHg 71%
    05:00 -2°C° 0 mm 6 m/S 761 mmHg 71%
    06:00 -2°C° 0 mm 6 m/S 761 mmHg 72%
    07:00 -1°C° 0 mm 6 m/S 761 mmHg 69%
    08:00 +1°C° 0 mm 6 m/S 761 mmHg 67%
    09:00 +1°C° 0 mm 6 m/S 762 mmHg 64%
    10:00 +2°C° 0 mm 6 m/S 761 mmHg 63%
    11:00 +2°C° 0 mm 6 m/S 761 mmHg 62%
    12:00 +2°C° 0 mm 6 m/S 761 mmHg 61%
    13:00 +2°C° 0 mm 6 m/S 760 mmHg 64%
    14:00 +2°C° 0 mm 6 m/S 760 mmHg 67%
    15:00 +2°C° 0 mm 7 m/S 759 mmHg 69%
    16:00 +1°C° 0 mm 6 m/S 759 mmHg 74%
    17:00 -1°C° 0 mm 6 m/S 759 mmHg 79%
    18:00 -1°C° 0 mm 5 m/S 759 mmHg 84%
    19:00 -1°C° 0 mm 5 m/S 759 mmHg 82%
    20:00 -1°C° 0 mm 5 m/S 759 mmHg 81%
    21:00 -1°C° 0 mm 5 m/S 759 mmHg 80%
    22:00 -1°C° 0 mm 5 m/S 759 mmHg 80%
    23:00 -1°C° 0 mm 4 m/S 759 mmHg 79%

    23 Februar, Samstag

    Zeit Temperatur Niederschläge Wind Luftdruck Luftfeuchtigkeit
    00:00 -1°C° 0 mm 4 m/S 758 mmHg 79%
    01:00 -1°C° 0 mm 4 m/S 758 mmHg 76%
    02:00 -1°C° 0 mm 4 m/S 758 mmHg 72%
    03:00 -1°C° 0 mm 4 m/S 758 mmHg 69%
    04:00 -2°C° 0 mm 4 m/S 758 mmHg 68%
    05:00 -2°C° 0 mm 4 m/S 758 mmHg 67%
    06:00 -2°C° 0 mm 5 m/S 758 mmHg 65%
    07:00 -2°C° 0 mm 5 m/S 758 mmHg 62%
    08:00 -1°C° 0 mm 5 m/S 758 mmHg 59%
    09:00 -1°C° 0 mm 5 m/S 758 mmHg 56%
    10:00 0°C° 0 mm 5 m/S 758 mmHg 56%
    11:00 0°C° 0 mm 5 m/S 757 mmHg 56%
    12:00 +1°C° 0 mm 5 m/S 757 mmHg 55%
    13:00 0°C° 0 mm 5 m/S 757 mmHg 56%
    14:00 -1°C° 0 mm 6 m/S 757 mmHg 57%
    15:00 -1°C° 0 mm 6 m/S 757 mmHg 58%
    16:00 -1°C° 0 mm 5 m/S 757 mmHg 62%
    17:00 -2°C° 0 mm 5 m/S 758 mmHg 65%
    18:00 -2°C° 0 mm 5 m/S 758 mmHg 69%
    19:00 -4°C° 0 mm 5 m/S 759 mmHg 69%
    20:00 -4°C° 0 mm 5 m/S 759 mmHg 68%
    21:00 -4°C° 0 mm 5 m/S 760 mmHg 68%
    22:00 -3°C° 0 mm 4 m/S 760 mmHg 68%
    23:00 -3°C° 0 mm 4 m/S 760 mmHg 68%

    24 Februar, Sonntag

    Zeit Temperatur Niederschläge Wind Luftdruck Luftfeuchtigkeit
    00:00 -3°C° 0 mm 4 m/S 760 mmHg 67%
    01:00 -3°C° 0 mm 4 m/S 760 mmHg 67%
    02:00 -3°C° 0 mm 4 m/S 761 mmHg 67%
    03:00 -3°C° 0 mm 4 m/S 761 mmHg 67%
    04:00 -3°C° 0 mm 4 m/S 761 mmHg 67%
    05:00 -2°C° 0 mm 5 m/S 761 mmHg 67%
    06:00 -2°C° 0 mm 5 m/S 761 mmHg 67%
    07:00 -2°C° 0 mm 6 m/S 761 mmHg 65%
    08:00 -1°C° 0 mm 8 m/S 761 mmHg 63%
    09:00 0°C° 0 mm 9 m/S 761 mmHg 61%
    10:00 +1°C° 0 mm 10 m/S 761 mmHg 61%
    11:00 +1°C° 0 mm 10 m/S 760 mmHg 61%
    12:00 +2°C° 0 mm 11 m/S 760 mmHg 61%
    13:00 +2°C° 0 mm 11 m/S 760 mmHg 62%
    14:00 +2°C° 0 mm 11 m/S 759 mmHg 63%
    15:00 +2°C° 0 mm 11 m/S 759 mmHg 64%
    16:00 +2°C° 0 mm 11 m/S 759 mmHg 66%
    17:00 +1°C° 0 mm 11 m/S 759 mmHg 68%
    18:00 +1°C° 0 mm 11 m/S 759 mmHg 70%
    19:00 +1°C° 0 mm 11 m/S 759 mmHg 72%
    20:00 +1°C° 0 mm 11 m/S 759 mmHg 74%
    21:00 +1°C° 0 mm 11 m/S 759 mmHg 76%
    22:00 +1°C° 0 mm 11 m/S 759 mmHg 79%
    23:00 +1°C° 0 mm 11 m/S 759 mmHg 81%
    Mehr zeigen